• In Hungary
  • List of Countries
  • For 7 days
  • Water Temperature
  • Satellite Maps
  • Weather Map
  • News
  • Weather Widgets
  • user-avatar
    Login

    Hourly Weather Kota

    Today, 23 January, Tuesday

    Time Temperature Precipitation Wind Pressure Humidity
    00:00 +20°C° 0 mm 2 mps 734 mmHg 45%
    01:00 +19°C° 0 mm 2 mps 734 mmHg 45%
    02:00 +19°C° 0 mm 2 mps 733 mmHg 46%
    03:00 +19°C° 0 mm 2 mps 733 mmHg 47%
    04:00 +18°C° 0 mm 2 mps 733 mmHg 48%
    05:00 +18°C° 0 mm 2 mps 733 mmHg 50%
    06:00 +19°C° 0 mm 2 mps 733 mmHg 48%
    07:00 +19°C° 0 mm 2 mps 734 mmHg 47%
    08:00 +20°C° 0 mm 2 mps 734 mmHg 46%
    09:00 +21°C° 0 mm 3 mps 734 mmHg 41%
    10:00 +24°C° 0 mm 3 mps 734 mmHg 37%
    11:00 +25°C° 0 mm 3 mps 734 mmHg 32%
    12:00 +26°C° 0 mm 4 mps 734 mmHg 31%
    13:00 +27°C° 0 mm 4 mps 733 mmHg 30%
    14:00 +28°C° 0 mm 5 mps 733 mmHg 28%
    15:00 +27°C° 0 mm 5 mps 733 mmHg 29%
    16:00 +26°C° 0 mm 5 mps 733 mmHg 29%
    17:00 +25°C° 0 mm 4 mps 733 mmHg 30%
    18:00 +23°C° 0 mm 4 mps 733 mmHg 27%
    19:00 +21°C° 0 mm 4 mps 734 mmHg 25%
    20:00 +19°C° 0 mm 4 mps 734 mmHg 23%
    21:00 +19°C° 0 mm 4 mps 735 mmHg 23%
    22:00 +18°C° 0 mm 3 mps 735 mmHg 22%
    23:00 +17°C° 0 mm 3 mps 735 mmHg 22%

    Tomorrow, 24 January, Wednesday

    Time Temperature Precipitation Wind Pressure Humidity
    00:00 +16°C° 0 mm 2 mps 735 mmHg 22%
    01:00 +16°C° 0 mm 2 mps 735 mmHg 22%
    02:00 +15°C° 0 mm 2 mps 736 mmHg 22%
    03:00 +15°C° 0 mm 2 mps 735 mmHg 23%
    04:00 +14°C° 0 mm 2 mps 735 mmHg 23%
    05:00 +14°C° 0 mm 1 mps 735 mmHg 24%
    06:00 +14°C° 0 mm 1 mps 736 mmHg 25%
    07:00 +15°C° 0 mm 1 mps 736 mmHg 26%
    08:00 +15°C° 0 mm 1 mps 737 mmHg 27%
    09:00 +19°C° 0 mm 1 mps 737 mmHg 23%
    10:00 +21°C° 0 mm 1 mps 738 mmHg 20%
    11:00 +23°C° 0 mm 2 mps 738 mmHg 16%
    12:00 +24°C° 0 mm 2 mps 737 mmHg 15%
    13:00 +25°C° 0 mm 2 mps 737 mmHg 14%
    14:00 +25°C° 0 mm 2 mps 736 mmHg 14%
    15:00 +25°C° 0 mm 2 mps 736 mmHg 16%
    16:00 +24°C° 0 mm 2 mps 736 mmHg 18%
    17:00 +23°C° 0 mm 1 mps 736 mmHg 20%
    18:00 +21°C° 0 mm 1 mps 736 mmHg 20%
    19:00 +20°C° 0 mm 1 mps 737 mmHg 21%
    20:00 +18°C° 0 mm 1 mps 737 mmHg 21%
    21:00 +18°C° 0 mm 1 mps 737 mmHg 22%
    22:00 +15°C° 0 mm 0 mps 737 mmHg 22%
    23:00 +15°C° 0 mm 0 mps 737 mmHg 22%

    Day after tomorrow, 25 January, Thursday

    Time Temperature Precipitation Wind Pressure Humidity
    00:00 +15°C° 0 mm 1 mps 737 mmHg 23%
    01:00 +15°C° 0 mm 1 mps 736 mmHg 23%
    02:00 +14°C° 0 mm 1 mps 736 mmHg 23%
    03:00 +14°C° 0 mm 1 mps 736 mmHg 24%
    04:00 +13°C° 0 mm 1 mps 736 mmHg 25%
    05:00 +13°C° 0 mm 1 mps 735 mmHg 26%
    06:00 +14°C° 0 mm 1 mps 736 mmHg 28%
    07:00 +14°C° 0 mm 1 mps 737 mmHg 29%
    08:00 +14°C° 0 mm 0 mps 737 mmHg 31%
    09:00 +16°C° 0 mm 0 mps 737 mmHg 28%
    10:00 +19°C° 0 mm 0 mps 738 mmHg 25%
    11:00 +21°C° 0 mm 0 mps 738 mmHg 22%
    12:00 +24°C° 0 mm 1 mps 737 mmHg 20%
    13:00 +25°C° 0 mm 1 mps 736 mmHg 18%
    14:00 +26°C° 0 mm 1 mps 736 mmHg 16%
    15:00 +25°C° 0 mm 1 mps 735 mmHg 18%
    16:00 +24°C° 0 mm 1 mps 735 mmHg 20%
    17:00 +24°C° 0 mm 1 mps 735 mmHg 23%
    18:00 +22°C° 0 mm 1 mps 735 mmHg 24%
    19:00 +21°C° 0 mm 1 mps 736 mmHg 25%
    20:00 +19°C° 0 mm 1 mps 736 mmHg 26%
    21:00 +18°C° 0 mm 1 mps 736 mmHg 27%
    22:00 +18°C° 0 mm 1 mps 736 mmHg 29%
    23:00 +16°C° 0 mm 1 mps 736 mmHg 30%

    26 January, Friday

    Time Temperature Precipitation Wind Pressure Humidity
    00:00 +16°C° 0 mm 1 mps 736 mmHg 31%
    01:00 +15°C° 0 mm 0 mps 736 mmHg 31%
    02:00 +14°C° 0 mm 0 mps 736 mmHg 32%
    03:00 +14°C° 0 mm 0 mps 736 mmHg 33%
    04:00 +13°C° 0 mm 0 mps 735 mmHg 33%
    05:00 +14°C° 0 mm 1 mps 735 mmHg 34%
    06:00 +15°C° 0 mm 1 mps 736 mmHg 35%
    07:00 +15°C° 0 mm 0 mps 737 mmHg 35%
    08:00 +15°C° 0 mm 0 mps 737 mmHg 36%
    09:00 +20°C° 0 mm 1 mps 738 mmHg 32%
    10:00 +22°C° 0 mm 1 mps 738 mmHg 28%
    11:00 +24°C° 0 mm 2 mps 738 mmHg 23%
    12:00 +25°C° 0 mm 1 mps 737 mmHg 21%
    13:00 +26°C° 0 mm 1 mps 737 mmHg 19%
    14:00 +25°C° 0 mm 0 mps 736 mmHg 17%
    15:00 +26°C° 0 mm 1 mps 736 mmHg 19%
    16:00 +25°C° 0 mm 1 mps 735 mmHg 21%
    17:00 +24°C° 0 mm 1 mps 735 mmHg 23%
    18:00 +23°C° 0 mm 1 mps 736 mmHg 23%
    19:00 +21°C° 0 mm 1 mps 736 mmHg 24%
    20:00 +20°C° 0 mm 1 mps 736 mmHg 24%
    21:00 +19°C° 0 mm 1 mps 736 mmHg 25%
    22:00 +19°C° 0 mm 1 mps 736 mmHg 26%
    23:00 +18°C° 0 mm 1 mps 736 mmHg 27%

    27 January, Saturday

    Time Temperature Precipitation Wind Pressure Humidity
    00:00 +18°C° 0 mm 1 mps 736 mmHg 27%
    01:00 +18°C° 0 mm 1 mps 736 mmHg 28%
    02:00 +16°C° 0 mm 1 mps 735 mmHg 29%
    03:00 +16°C° 0 mm 1 mps 735 mmHg 29%
    04:00 +15°C° 0 mm 1 mps 735 mmHg 30%
    05:00 +15°C° 0 mm 1 mps 735 mmHg 31%
    06:00 +16°C° 0 mm 1 mps 736 mmHg 32%
    07:00 +16°C° 0 mm 1 mps 736 mmHg 32%
    08:00 +18°C° 0 mm 1 mps 737 mmHg 33%
    09:00 +20°C° 0 mm 1 mps 737 mmHg 29%
    10:00 +23°C° 0 mm 1 mps 737 mmHg 25%
    11:00 +25°C° 0 mm 2 mps 737 mmHg 21%
    12:00 +26°C° 0 mm 2 mps 736 mmHg 19%
    13:00 +27°C° 0 mm 2 mps 736 mmHg 18%
    14:00 +28°C° 0 mm 2 mps 735 mmHg 16%
    15:00 +27°C° 0 mm 1 mps 735 mmHg 18%
    16:00 +26°C° 0 mm 1 mps 734 mmHg 20%
    17:00 +24°C° 0 mm 0 mps 734 mmHg 22%
    18:00 +24°C° 0 mm 1 mps 735 mmHg 23%
    19:00 +22°C° 0 mm 1 mps 735 mmHg 23%
    20:00 +21°C° 0 mm 1 mps 736 mmHg 23%
    21:00 +20°C° 0 mm 1 mps 736 mmHg 24%
    22:00 +20°C° 0 mm 1 mps 736 mmHg 25%
    23:00 +19°C° 0 mm 1 mps 736 mmHg 27%

    28 January, Sunday

    Time Temperature Precipitation Wind Pressure Humidity
    00:00 +18°C° 0 mm 1 mps 736 mmHg 27%
    01:00 +18°C° 0 mm 1 mps 735 mmHg 28%
    02:00 +18°C° 0 mm 1 mps 735 mmHg 28%
    03:00 +16°C° 0 mm 1 mps 735 mmHg 29%
    04:00 +15°C° 0 mm 0 mps 735 mmHg 30%
    05:00 +14°C° 0 mm 0 mps 735 mmHg 30%
    06:00 +15°C° 0 mm 0 mps 736 mmHg 31%
    07:00 +16°C° 0 mm 0 mps 736 mmHg 32%
    08:00 +19°C° 0 mm 1 mps 737 mmHg 32%
    09:00 +21°C° 0 mm 1 mps 737 mmHg 28%
    10:00 +23°C° 0 mm 1 mps 737 mmHg 25%
    11:00 +25°C° 0 mm 1 mps 738 mmHg 21%
    12:00 +27°C° 0 mm 1 mps 737 mmHg 19%
    13:00 +28°C° 0 mm 1 mps 736 mmHg 18%
    14:00 +27°C° 0 mm 0 mps 735 mmHg 16%
    15:00 +28°C° 0 mm 1 mps 735 mmHg 18%
    16:00 +27°C° 0 mm 1 mps 735 mmHg 20%
    17:00 +26°C° 0 mm 1 mps 735 mmHg 21%
    18:00 +25°C° 0 mm 1 mps 736 mmHg 22%
    19:00 +23°C° 0 mm 2 mps 736 mmHg 23%
    20:00 +20°C° 0 mm 2 mps 736 mmHg 24%
    21:00 +20°C° 0 mm 2 mps 736 mmHg 25%
    22:00 +19°C° 0 mm 2 mps 737 mmHg 25%
    23:00 +18°C° 0 mm 2 mps 737 mmHg 26%
    Show more